Regional Weather Roundup
Issued by NWS Sioux Falls, SD

Home | Current Version | Previous Version | Text Only | Print | Product List | Glossary Off
Versions: 1 2 3 4 5 6 7 8 9 10 11 12 13 14 15 16 17 18 19 20 21 22 23 24 25 26 27 28 29 30 31 32 33 34 35 36 37 38 39 40 41 42 43 44 45 46 47 48 49 50

417
ASUS43 KFSD 052202
RWRFSD

WEATHER ROUNDUP FOR SE SOUTH DAKOTA/SW MINNESOTA/NW IOWA
NATIONAL WEATHER SERVICE SIOUX FALLS SD
400 PM CST MON DEC 05 2016

NOTE: "FAIR" INDICATES FEW OR NO CLOUDS BELOW 12,000 FEET WITH NO
SIGNIFICANT WEATHER AND OR OBSTRUCTIONS TO VISIBILITY.


SDZ038>040-050-052>070-052300-
SOUTHEAST SOUTH DAKOTA

CITY           SKY/WX    TMP DP  RH WIND       PRES   REMARKS
CHAMBERLAIN    NOT AVBL
HURON          CLOUDY    36  30  79 W26G35    29.55R
MADISON        FAIR      41  36  81 W22G30    29.51R
MITCHELL       MOCLDY    38  29  70 W21G28    29.61R
SIOUX FALLS    MOCLDY    44  34  67 SW13G22   29.55R
WINNER         CLOUDY    31  24  75 NW28G38   29.68R WCI  17
YANKTON        CLOUDY    45  28  53 W15       29.59R
$$

MNZ071-072-080-081-089-090-097-098-052300-
SOUTHWEST MINNESOTA

CITY           SKY/WX    TMP DP  RH WIND       PRES   REMARKS
FAIRMONT       CLOUDY    42  36  79 S20       29.60R
JACKSON        CLOUDY    43  32  65 S22G28    29.58R
LUVERNE        CLOUDY    41  32  70 SW22      29.55R
MARSHALL       PTCLDY    42  34  73 SW15      29.51R
MONTEVIDEO     CLOUDY    37  36  93 S6        29.53R
PIPESTONE      PTCLDY    41  36  81 SW15      29.51R
REDWOOD FALLS  CLOUDY    43  35  73 S12       29.54R
TRACY          CLOUDY    43  35  74 SW24G31   29.51R
WINDOM         CLOUDY    45  34  65 S21G26    29.54S
WORTHINGTON    CLOUDY    42  34  73 S31G39    29.54R
$$

IAZ001>003-012>014-020>022-031-032-NEZ013-014-SDZ071-052300-
NORTHWEST IOWA

CITY           SKY/WX    TMP DP  RH WIND       PRES   REMARKS
CHEROKEE       CLOUDY    45  37  73 S21G30    29.57F
DENISON        CLOUDY    46  36  66 S17G24    29.62R
ESTHERVILLE    CLOUDY    43  37  79 S23G30    29.59R
LE MARS        PTCLDY    45  36  70 S13G18    29.61R
ORANGE CITY    CLOUDY    43  36  75 S22       29.58R
SHELDON        CLOUDY    43  36  75 S18G31    29.57R
SIOUX CITY     CLOUDY    47  35  63 SW15      29.63R
SPENCER        CLOUDY    45  35  68 S26G36    29.60R
STORM LAKE     CLOUDY    43  36  75 S22G29    29.61S
$$

ABBREVIATIONS USED IN REMARKS
   TC - TEMPERATURE IN CELSIUS
  WCI - WIND CHILL INDEX
   HX - HEAT INDEX
  VSB - VISIBILITY





USA.gov is the U.S. government's official web portal to all federal, state and local government web resources and services.